[[{"header":{"parameterUnit":"m.s-1","parameterCategory":2,"la1":30.2991,"la2":30.254,"lo1":-89.0895,"lo2":-89.0444,"dy":0.0017,"dx":0.0017,"nx":28,"ny":28,"refTime":"2025-06-03T09:00:00:Z","depth":"0","parameterNumber":2,"parameterNumberName":"U-component_of_CURRENTS"},"data":[0,0,0,0,0,0,0,0,0,0,0,0,0,0,0,0,0,0,0,0,0,0,0,0,0,0,0,0,0,0,0,0,0,0,0,0,0,0,0,0,0,0,0,0,0,0,0,0,0,0,0,0,0,0,0,0,0,0,-0.2702,-0.2702,0,-0.2685,-0.2684,-0.2684,-0.2631,-0.2631,-0.263,-0.2629,-0.2533,-0.2531,-0.253,0,0,0,0,0,0,0,0,0,0,0,0,0,-0.2658,-0.266,-0.2702,-0.2702,-0.2702,-0.2685,-0.2684,-0.2684,-0.2632,-0.263,-0.2629,-0.2628,-0.2534,-0.2532,-0.253,0,0,0,0,0,0,0,0,0,0,0,0,0,-0.2661,-0.266,-0.2702,-0.2676,-0.2673,-0.2685,-0.2684,-0.2684,-0.2632,-0.263,-0.2629,-0.2628,-0.2534,-0.2532,-0.2529,-0.2543,0,0,-0.2522,-0.2521,0,0,0,0,0,0,0,0,-0.2661,-0.2662,-0.268,-0.2678,-0.2675,-0.2661,-0.2634,-0.2633,-0.2632,-0.2645,-0.2629,-0.2627,-0.2571,-0.2566,-0.2563,-0.2538,-0.2534,-0.2522,-0.252,-0.2519,-0.2518,0,0,0,0,0,0,0,-0.2661,-0.2663,-0.2693,-0.268,-0.2677,-0.2654,-0.2653,-0.2634,-0.2613,-0.2644,-0.2641,-0.2643,-0.2569,-0.2566,-0.2561,-0.2533,-0.2522,-0.2519,-0.2518,-0.2517,-0.2473,-0.2473,0,0,0,0,0,0,-0.2671,-0.2663,-0.2694,-0.2693,-0.2667,-0.2656,-0.2655,-0.2665,-0.2615,-0.2607,-0.2644,-0.264,-0.2571,-0.2564,-0.2557,-0.2542,-0.2519,-0.2517,-0.2515,-0.2473,-0.2473,-0.2474,0,0,0,0,0,0,-0.267,-0.2674,-0.2695,-0.2678,-0.268,-0.2659,-0.2671,-0.2665,-0.2665,-0.2616,-0.2606,-0.2649,-0.2569,-0.256,-0.2541,-0.2539,-0.2516,-0.2513,-0.2472,-0.2473,-0.2473,-0.253,0,0,0,0,0,0,-0.2669,-0.2674,-0.2692,-0.268,-0.2681,-0.2713,-0.2672,-0.2666,-0.2669,-0.2664,-0.2617,-0.2607,-0.2568,-0.2546,-0.2539,-0.2535,-0.2511,-0.2472,-0.2473,-0.2473,-0.2528,-0.2533,-0.2537,0,0,0,0,0,-0.2668,-0.2705,-0.2693,-0.2697,-0.2704,-0.2715,-0.2714,-0.2691,-0.2671,-0.2683,-0.2643,-0.2608,-0.2544,-0.2545,-0.2537,-0.2532,-0.2472,-0.2473,-0.2473,-0.2526,-0.2532,-0.2537,0,0,0,0,0,0,-0.27,-0.2703,-0.2689,-0.2726,-0.2723,-0.2707,-0.272,-0.2703,-0.2684,-0.2675,-0.2621,-0.2609,-0.2587,-0.2559,-0.2561,-0.2521,-0.2499,-0.2498,-0.2542,-0.2547,-0.2551,-0.2553,-0.2509,0,0,0,0,0,-0.2715,-0.2735,-0.2732,-0.2758,-0.2762,-0.2742,-0.2745,-0.2731,-0.2711,-0.2701,-0.2665,-0.2623,-0.2586,-0.2568,-0.2536,-0.2525,-0.2501,-0.2514,-0.2519,-0.2523,-0.2519,-0.2483,-0.2484,-0.2476,-0.2476,-0.2476,0,0,-0.273,-0.2737,-0.2746,-0.2764,-0.2758,-0.2765,-0.274,-0.2754,-0.2745,-0.2694,-0.2675,-0.2642,-0.2588,-0.2565,-0.2553,-0.2541,-0.2517,-0.2524,-0.2527,-0.2521,-0.2484,-0.2485,-0.2485,-0.2477,-0.2476,-0.2476,0,0,-0.2764,-0.2781,-0.2802,-0.2807,-0.2812,-0.2799,-0.2807,-0.2796,-0.2779,-0.2769,-0.2716,-0.2689,-0.2644,-0.26,-0.257,-0.2585,-0.2543,-0.2571,-0.2592,-0.2558,-0.2558,-0.2558,-0.2552,-0.255,-0.2572,-0.2572,-0.2572,0,-0.2775,-0.2803,-0.281,-0.283,-0.2832,-0.2815,-0.2828,-0.2815,-0.2794,-0.2775,-0.2769,-0.2692,-0.2657,-0.2605,-0.2606,-0.2593,-0.2575,-0.2578,-0.2564,-0.2563,-0.2562,-0.2555,-0.2553,-0.2575,-0.2574,-0.2574,-0.2574,0,-0.2813,-0.2837,-0.2855,-0.2862,-0.2872,-0.2886,-0.287,-0.2866,-0.2845,-0.2817,-0.2779,-0.2738,-0.2685,-0.2673,-0.2643,-0.261,-0.2602,-0.2576,-0.2552,-0.2566,-0.2558,-0.2555,-0.2579,-0.2578,-0.2577,-0.2576,0,0,-0.2797,-0.2867,-0.2864,-0.2876,-0.2889,-0.2897,-0.2893,-0.2873,-0.2861,-0.2834,-0.2807,-0.2753,-0.2727,-0.2693,-0.2653,-0.2628,-0.2619,-0.2604,-0.26,-0.2601,-0.2561,-0.2643,-0.2647,-0.2588,-0.2587,-0.2586,-0.2568,0,-0.2804,-0.286,-0.2885,-0.2908,-0.2925,-0.2923,-0.2922,-0.2903,-0.2882,-0.2857,-0.28,-0.2767,-0.2732,-0.2717,-0.2682,-0.263,-0.2608,-0.2627,-0.2544,-0.2542,-0.2615,-0.2645,-0.2541,-0.2523,-0.2565,-0.2564,-0.2564,0,-0.2788,-0.2839,-0.2882,-0.2928,-0.2935,-0.2947,-0.2938,-0.2937,-0.2899,-0.2885,-0.284,-0.28,-0.2748,-0.2728,-0.2643,-0.2655,-0.2613,-0.258,-0.2578,-0.2628,-0.2617,-0.251,-0.2515,-0.2375,-0.2558,-0.2559,-0.2559,0,-0.2729,-0.2807,-0.2845,-0.2862,-0.2924,-0.2933,-0.2948,-0.2934,-0.2938,-0.2898,-0.2906,-0.2824,-0.2806,-0.2725,-0.2665,-0.2647,-0.259,-0.2552,-0.2585,-0.259,-0.2473,-0.2471,-0.2332,-0.2495,-0.2495,-0.2495,-0.2495,0,-0.2688,-0.2707,-0.2831,-0.2844,-0.2894,-0.2926,-0.2946,-0.295,-0.2958,-0.2967,-0.2915,-0.2918,-0.2807,-0.2762,-0.268,-0.2643,-0.2598,-0.26,-0.2592,-0.2496,-0.2496,-0.2347,-0.2325,-0.2494,-0.2494,-0.2495,-0.2495,0,-0.2587,-0.2664,-0.2723,-0.283,-0.2864,-0.2892,-0.2972,-0.2987,-0.3,-0.3016,-0.3011,-0.2987,-0.2945,-0.2852,-0.2745,-0.2698,-0.2571,-0.2624,-0.2546,-0.2531,-0.2462,-0.2449,-0.2388,-0.2338,-0.2657,-0.2659,-0.2661,0,-0.2541,-0.2564,-0.2713,-0.2772,-0.2823,-0.2887,-0.2935,-0.2987,-0.3014,-0.3062,-0.307,-0.3061,-0.3055,-0.2963,-0.2873,-0.2776,-0.2626,-0.2614,-0.257,-0.2462,-0.2437,-0.2425,-0.2385,-0.2426,-0.2426,-0.2426,-0.2425,0,-0.2458,-0.2516,-0.2581,-0.2707,-0.2787,-0.2885,-0.2958,-0.2989,-0.3047,-0.3085,-0.3136,-0.3149,-0.3132,-0.3,-0.2908,-0.2816,-0.2525,-0.2612,-0.2469,-0.2244,-0.2244,-0.2189,-0.2461,-0.2422,-0.2423,-0.2423,-0.2423,-0.2423,-0.2395,-0.2428,-0.252,-0.2612,-0.2735,-0.2835,-0.2799,-0.291,-0.2952,-0.2896,-0.3063,-0.2952,-0.2922,-0.2818,-0.279,-0.2551,-0.2613,-0.2352,-0.2345,-0.2343,-0.2296,-0.262,-0.2607,-0.2608,-0.2609,-0.261,-0.2611,0,-0.23,-0.2335,-0.2422,-0.2523,-0.2575,-0.2681,-0.276,-0.2662,-0.264,-0.2673,-0.2672,-0.2552,-0.2469,-0.2394,-0.2285,-0.2216,-0.217,-0.2085,-0.1939,-0.1912,-0.2126,-0.2112,-0.2027,-0.2027,-0.2027,-0.2027,-0.2028,-0.2028,-0.2251,-0.2257,-0.2284,-0.2304,-0.2365,-0.2282,-0.2258,-0.2205,-0.2147,-0.2006,-0.1876,-0.1901,-0.1911,-0.1957,-0.1829,-0.1795,-0.1688,-0.1706,-0.1713,-0.1734,-0.1753,-0.1772,-0.1745,-0.1585,-0.1585,-0.1399,-0.1397,-0.1396]},{"header":{"parameterUnit":"m.s-1","parameterCategory":2,"la1":30.2991,"la2":30.254,"lo1":-89.0895,"lo2":-89.0444,"dy":0.0017,"dx":0.0017,"nx":28,"ny":28,"refTime":"2025-06-03T09:00:00:Z","depth":"0","parameterNumber":3,"parameterNumberName":"V-component_of_CURRENTS"},"data":[0,0,0,0,0,0,0,0,0,0,0,0,0,0,0,0,0,0,0,0,0,0,0,0,0,0,0,0,0,0,0,0,0,0,0,0,0,0,0,0,0,0,0,0,0,0,0,0,0,0,0,0,0,0,0,0,0,0,-0.0968,-0.0968,0,-0.0944,-0.0943,-0.0943,-0.0936,-0.0937,-0.0937,-0.0937,-0.0773,-0.0768,-0.0764,0,0,0,0,0,0,0,0,0,0,0,0,0,-0.0903,-0.0905,-0.0969,-0.0968,-0.0968,-0.0944,-0.0943,-0.0943,-0.0936,-0.0937,-0.0937,-0.0938,-0.0775,-0.0769,-0.0763,0,0,0,0,0,0,0,0,0,0,0,0,0,-0.0909,-0.0906,-0.0969,-0.0964,-0.0963,-0.0944,-0.0943,-0.0942,-0.0936,-0.0937,-0.0937,-0.0938,-0.0776,-0.077,-0.0763,-0.0709,0,0,-0.0741,-0.0738,0,0,0,0,0,0,0,0,-0.0909,-0.0911,-0.0965,-0.0964,-0.0963,-0.0945,-0.086,-0.0858,-0.0936,-0.0944,-0.0937,-0.0938,-0.0819,-0.0808,-0.0801,-0.0701,-0.0694,-0.074,-0.0736,-0.0733,-0.0731,0,0,0,0,0,0,0,-0.0908,-0.0911,-0.0957,-0.0964,-0.0964,-0.0926,-0.0928,-0.0859,-0.0875,-0.0944,-0.0944,-0.0944,-0.0817,-0.0808,-0.0797,-0.0691,-0.0741,-0.0734,-0.073,-0.0727,-0.0504,-0.0503,0,0,0,0,0,0,-0.0921,-0.0912,-0.0957,-0.0956,-0.0939,-0.0927,-0.093,-0.0949,-0.0878,-0.087,-0.0944,-0.0944,-0.082,-0.0805,-0.0791,-0.0704,-0.0733,-0.0727,-0.0722,-0.0506,-0.0504,-0.0502,0,0,0,0,0,0,-0.092,-0.0926,-0.0958,-0.0933,-0.0935,-0.0929,-0.095,-0.0948,-0.0943,-0.088,-0.0869,-0.0941,-0.082,-0.0801,-0.0722,-0.0698,-0.0723,-0.0717,-0.0508,-0.0505,-0.0503,-0.0541,0,0,0,0,0,0,-0.0919,-0.0926,-0.094,-0.0935,-0.0937,-0.0943,-0.095,-0.0947,-0.0943,-0.0943,-0.0873,-0.0859,-0.0819,-0.0733,-0.0716,-0.0689,-0.0711,-0.051,-0.0507,-0.0504,-0.0542,-0.054,-0.0538,0,0,0,0,0,-0.0917,-0.0934,-0.0942,-0.0947,-0.0959,-0.0943,-0.094,-0.0935,-0.0942,-0.0933,-0.0884,-0.0861,-0.0701,-0.0726,-0.0706,-0.0677,-0.0511,-0.0508,-0.0504,-0.0542,-0.054,-0.0538,0,0,0,0,0,0,-0.0904,-0.0935,-0.0943,-0.0967,-0.0955,-0.0943,-0.0937,-0.0935,-0.0894,-0.0889,-0.0837,-0.0818,-0.0742,-0.0697,-0.0727,-0.0601,-0.0602,-0.0594,-0.0638,-0.0636,-0.0634,-0.0623,-0.0706,0,0,0,0,0,-0.0911,-0.0939,-0.0943,-0.0958,-0.0956,-0.0947,-0.0941,-0.0936,-0.0903,-0.0888,-0.0836,-0.0772,-0.0708,-0.0666,-0.0602,-0.0528,-0.0495,-0.0494,-0.0492,-0.0492,-0.0467,-0.0407,-0.0398,-0.0489,-0.0489,-0.0489,0,0,-0.0911,-0.093,-0.0945,-0.0957,-0.095,-0.0927,-0.0944,-0.0933,-0.0899,-0.087,-0.0801,-0.0763,-0.0688,-0.0612,-0.0573,-0.0572,-0.0452,-0.0487,-0.0487,-0.0462,-0.0402,-0.0393,-0.0386,-0.0487,-0.0487,-0.0488,0,0,-0.0909,-0.0939,-0.0952,-0.0939,-0.0932,-0.0918,-0.0916,-0.0896,-0.0876,-0.0811,-0.0784,-0.0729,-0.0627,-0.0573,-0.0532,-0.0474,-0.045,-0.0461,-0.0437,-0.038,-0.0373,-0.0365,-0.034,-0.0331,-0.0456,-0.0456,-0.0456,0,-0.0903,-0.0925,-0.0945,-0.0933,-0.0918,-0.0912,-0.089,-0.0859,-0.081,-0.0782,-0.0785,-0.0652,-0.0601,-0.0507,-0.0494,-0.047,-0.0449,-0.046,-0.0381,-0.0373,-0.0365,-0.034,-0.0329,-0.0458,-0.0458,-0.0457,-0.0457,0,-0.0902,-0.0904,-0.0903,-0.0892,-0.0871,-0.0854,-0.0817,-0.0784,-0.0763,-0.0731,-0.065,-0.059,-0.0514,-0.0495,-0.0473,-0.0391,-0.0401,-0.0396,-0.0396,-0.0358,-0.0335,-0.0322,-0.046,-0.0459,-0.0459,-0.0458,0,0,-0.0925,-0.091,-0.0907,-0.0895,-0.0851,-0.084,-0.0771,-0.0719,-0.0688,-0.0626,-0.0574,-0.0476,-0.047,-0.0422,-0.0399,-0.0346,-0.0292,-0.0351,-0.0347,-0.0343,-0.0192,-0.0216,-0.0206,-0.0286,-0.0284,-0.0281,-0.021,0,-0.0915,-0.0901,-0.0883,-0.084,-0.0829,-0.0786,-0.073,-0.0676,-0.063,-0.0573,-0.0507,-0.0449,-0.0434,-0.042,-0.0358,-0.0307,-0.0256,-0.0313,-0.0211,-0.0207,-0.0248,-0.0189,-0.0125,-0.0056,-0.0198,-0.0196,-0.0194,0,-0.0918,-0.0912,-0.0884,-0.0839,-0.0829,-0.0793,-0.0728,-0.0676,-0.0585,-0.0552,-0.0478,-0.0435,-0.0341,-0.0349,-0.0217,-0.0261,-0.0218,-0.0181,-0.0178,-0.0169,-0.0207,-0.0106,-0.0028,0.0099,-0.0175,-0.0176,-0.0178,0,-0.0949,-0.0908,-0.0895,-0.0876,-0.082,-0.0795,-0.076,-0.0678,-0.0649,-0.0548,-0.0525,-0.0402,-0.0362,-0.0264,-0.0192,-0.02,-0.0068,-0.007,-0.0045,-0.0049,0.0049,0.005,0.0256,0.0036,0.0036,0.0036,0.0036,0,-0.0953,-0.0939,-0.0917,-0.0909,-0.0899,-0.0838,-0.0809,-0.0755,-0.0681,-0.0656,-0.0535,-0.0498,-0.034,-0.0255,-0.0178,-0.0079,-0.0052,-0.0016,-0.0014,0.0033,0.0032,0.0179,0.0207,0.0039,0.0038,0.0038,0.0037,0,-0.0984,-0.0964,-0.096,-0.0924,-0.0918,-0.0918,-0.0877,-0.086,-0.0775,-0.0737,-0.071,-0.0563,-0.0447,-0.0307,-0.0155,-0.0079,0.009,0.0047,0.0072,0.0076,0.0219,0.024,0.0412,0.0441,0.0113,0.0113,0.0114,0,-0.0997,-0.1001,-0.1003,-0.1028,-0.1018,-0.101,-0.1011,-0.0929,-0.091,-0.0795,-0.0787,-0.0649,-0.0575,-0.0348,-0.0145,0.0022,0.0087,0.0153,0.0169,0.0264,0.0291,0.0292,0.0304,0.0276,0.0277,0.0278,0.0279,0,-0.1029,-0.1039,-0.105,-0.111,-0.1131,-0.1143,-0.1132,-0.1131,-0.1036,-0.0991,-0.0929,-0.0857,-0.0594,-0.0346,-0.0099,0.0006,0.0243,0.0178,0.0309,0.0472,0.0463,0.0478,0.0157,0.0289,0.0288,0.0287,0.0287,0.0286,-0.1068,-0.1104,-0.114,-0.1189,-0.1233,-0.1272,-0.1263,-0.1251,-0.1229,-0.1081,-0.1031,-0.0783,-0.0464,-0.0087,0.0015,0.0373,0.0299,0.0483,0.0508,0.0506,0.0531,0.0202,0.0305,0.0305,0.0304,0.0303,0.0302,0,-0.1117,-0.1156,-0.1216,-0.1278,-0.133,-0.1325,-0.1335,-0.1293,-0.1273,-0.1034,-0.0926,-0.0431,-0.0131,0.021,0.0628,0.0748,0.0758,0.0798,0.0875,0.0874,0.0646,0.0651,0.0798,0.0797,0.0797,0.0797,0.0797,0.0797,-0.1147,-0.1218,-0.1245,-0.1341,-0.1375,-0.1381,-0.1371,-0.132,-0.1131,-0.0749,-0.0321,-0.002,0.0353,0.0807,0.1124,0.1127,0.1205,0.1169,0.1167,0.1085,0.1059,0.1035,0.1053,0.1281,0.1281,0.142,0.1422,0.1423]}],[{"header":{"parameterUnit":"m.s-1","parameterCategory":2,"la1":30.2991,"la2":30.254,"lo1":-89.0895,"lo2":-89.0444,"dy":0.0017,"dx":0.0017,"nx":28,"ny":28,"refTime":"2025-06-03T09:00:00:Z","depth":"2","parameterNumber":2,"parameterNumberName":"U-component_of_CURRENTS"},"data":[0,0,0,0,0,0,0,0,0,0,0,0,0,0,0,0,0,0,0,0,0,0,0,0,0,0,0,0,0,0,0,0,0,0,0,0,0,0,0,0,0,0,0,0,0,0,0,0,0,0,0,0,0,0,0,0,0,0,-0.205,-0.2051,0,-0.2015,-0.2014,-0.2013,-0.1955,-0.1955,-0.1954,-0.1954,-0.1981,-0.1982,-0.1983,0,0,0,0,0,0,0,0,0,0,0,0,0,-0.1987,-0.1989,-0.205,-0.2051,-0.2051,-0.2015,-0.2014,-0.2013,-0.1955,-0.1955,-0.1954,-0.1954,-0.198,-0.1982,-0.1983,0,0,0,0,0,0,0,0,0,0,0,0,0,-0.1984,-0.1989,-0.205,-0.2022,-0.2019,-0.2016,-0.2014,-0.2013,-0.1956,-0.1955,-0.1954,-0.1953,-0.198,-0.1982,-0.1983,-0.201,0,0,-0.1989,-0.199,0,0,0,0,0,0,0,0,-0.1984,-0.1986,-0.2026,-0.2024,-0.2021,-0.1994,-0.2002,-0.2017,-0.1956,-0.1974,-0.1954,-0.1953,-0.1996,-0.1996,-0.1982,-0.2012,-0.2013,-0.1989,-0.199,-0.1991,-0.1991,0,0,0,0,0,0,0,-0.1985,-0.1987,-0.203,-0.2026,-0.2023,-0.1984,-0.1983,-0.2003,-0.1986,-0.1972,-0.1969,-0.1975,-0.1994,-0.198,-0.1982,-0.2013,-0.1989,-0.1991,-0.1992,-0.1992,-0.2048,-0.2048,0,0,0,0,0,0,-0.2007,-0.1988,-0.2032,-0.203,-0.2007,-0.1986,-0.1985,-0.1999,-0.1984,-0.1982,-0.1976,-0.1973,-0.1977,-0.198,-0.1983,-0.2038,-0.1991,-0.1993,-0.1994,-0.2048,-0.2048,-0.2049,0,0,0,0,0,0,-0.2006,-0.2011,-0.2033,-0.2012,-0.2012,-0.199,-0.2005,-0.1999,-0.201,-0.1988,-0.1985,-0.1998,-0.1977,-0.1981,-0.1982,-0.2038,-0.1993,-0.1995,-0.2047,-0.2048,-0.2048,-0.2133,0,0,0,0,0,0,-0.2004,-0.2011,-0.2031,-0.2014,-0.2015,-0.2067,-0.2006,-0.1999,-0.2017,-0.2012,-0.2006,-0.2005,-0.1976,-0.1979,-0.1984,-0.2039,-0.1997,-0.2047,-0.2047,-0.2048,-0.213,-0.2137,-0.2142,0,0,0,0,0,-0.2002,-0.205,-0.2032,-0.2038,-0.2042,-0.207,-0.2068,-0.2042,-0.2019,-0.2045,-0.1997,-0.2007,-0.1988,-0.198,-0.1986,-0.2044,-0.2046,-0.2047,-0.2048,-0.2127,-0.2135,-0.2142,0,0,0,0,0,0,-0.2053,-0.2048,-0.2029,-0.2077,-0.2085,-0.2063,-0.2084,-0.2069,-0.2051,-0.2043,-0.2006,-0.2003,-0.2016,-0.2016,-0.2009,-0.2056,-0.2023,-0.2025,-0.2082,-0.2089,-0.2095,-0.2097,-0.1998,0,0,0,0,0,-0.2069,-0.2101,-0.2088,-0.2138,-0.2135,-0.2112,-0.212,-0.211,-0.2093,-0.2085,-0.2082,-0.2059,-0.2022,-0.2044,-0.2019,-0.2068,-0.2041,-0.2107,-0.2114,-0.2119,-0.2121,-0.207,-0.2072,-0.2051,-0.2051,-0.2051,0,0,-0.2099,-0.2112,-0.2124,-0.215,-0.2142,-0.2143,-0.2115,-0.215,-0.2153,-0.2095,-0.2114,-0.2079,-0.2028,-0.2043,-0.2057,-0.2062,-0.2122,-0.212,-0.2126,-0.2124,-0.2071,-0.2073,-0.2074,-0.2052,-0.2052,-0.2052,0,0,-0.2174,-0.2187,-0.2214,-0.2223,-0.2235,-0.221,-0.2231,-0.223,-0.2229,-0.2239,-0.2169,-0.216,-0.2163,-0.2123,-0.2097,-0.2134,-0.2131,-0.2155,-0.2226,-0.2177,-0.2179,-0.2179,-0.2197,-0.2198,-0.2189,-0.2189,-0.2189,0,-0.2218,-0.2237,-0.2234,-0.2259,-0.2264,-0.2242,-0.2257,-0.2253,-0.2261,-0.2257,-0.2261,-0.2199,-0.2187,-0.2146,-0.216,-0.2153,-0.2141,-0.2205,-0.2186,-0.2186,-0.2185,-0.2202,-0.2202,-0.2193,-0.2193,-0.2192,-0.2192,0,-0.2279,-0.2297,-0.2325,-0.2323,-0.2334,-0.2365,-0.2341,-0.2369,-0.2364,-0.2339,-0.2329,-0.2291,-0.2254,-0.2267,-0.223,-0.2229,-0.2229,-0.2176,-0.2171,-0.2192,-0.221,-0.2209,-0.2199,-0.2198,-0.2197,-0.2195,0,0,-0.234,-0.2363,-0.236,-0.2351,-0.237,-0.237,-0.24,-0.2387,-0.2381,-0.2399,-0.2396,-0.2354,-0.2341,-0.2309,-0.2283,-0.2277,-0.2292,-0.2255,-0.225,-0.2281,-0.2237,-0.2258,-0.2258,-0.2234,-0.2233,-0.2232,-0.227,0,-0.2375,-0.2422,-0.242,-0.2427,-0.2426,-0.2426,-0.2442,-0.2436,-0.2433,-0.2436,-0.2399,-0.2376,-0.235,-0.2357,-0.2336,-0.228,-0.2285,-0.229,-0.2203,-0.2202,-0.2222,-0.2255,-0.1989,-0.1999,-0.2269,-0.2268,-0.2268,0,-0.2381,-0.2416,-0.2447,-0.2446,-0.2444,-0.2451,-0.2451,-0.2469,-0.2461,-0.2474,-0.2455,-0.2417,-0.2408,-0.2386,-0.2319,-0.2325,-0.2297,-0.2267,-0.2266,-0.2248,-0.2218,-0.2009,-0.1986,-0.2266,-0.2266,-0.2266,-0.2266,0,-0.2353,-0.2397,-0.242,-0.2429,-0.2448,-0.2465,-0.2474,-0.2479,-0.2488,-0.2505,-0.251,-0.2465,-0.2454,-0.2398,-0.2353,-0.2338,-0.2286,-0.2243,-0.2238,-0.2241,-0.1978,-0.1959,-0.2194,-0.2194,-0.2193,-0.2193,-0.2193,0,-0.2347,-0.2338,-0.2412,-0.2412,-0.2437,-0.2457,-0.2471,-0.2495,-0.2521,-0.2504,-0.252,-0.251,-0.2451,-0.2411,-0.2371,-0.2316,-0.2292,-0.2261,-0.2242,-0.2009,-0.1993,-0.2176,-0.2173,-0.2195,-0.2194,-0.2194,-0.2194,0,-0.2263,-0.2319,-0.2333,-0.2393,-0.2418,-0.2429,-0.2478,-0.2464,-0.2526,-0.2522,-0.2536,-0.2537,-0.2518,-0.2469,-0.2398,-0.2337,-0.229,-0.2274,-0.2056,-0.201,-0.2285,-0.2287,-0.2283,-0.2284,-0.2285,-0.2285,-0.2286,0,-0.222,-0.2236,-0.2316,-0.234,-0.2364,-0.2405,-0.2412,-0.2469,-0.2443,-0.252,-0.248,-0.2522,-0.2497,-0.2452,-0.2355,-0.2306,-0.2337,-0.2047,-0.1965,-0.2309,-0.2289,-0.229,-0.229,-0.1664,-0.1659,-0.1655,-0.1652,0,-0.2149,-0.2189,-0.2201,-0.2264,-0.2282,-0.2291,-0.2302,-0.2311,-0.2352,-0.2379,-0.2416,-0.2447,-0.2421,-0.2249,-0.2201,-0.2122,-0.204,-0.1976,-0.2319,-0.1712,-0.1734,-0.1714,-0.1731,-0.1618,-0.1622,-0.1624,-0.1626,-0.1627,-0.2077,-0.2073,-0.2116,-0.2141,-0.2165,-0.2143,-0.2093,-0.2114,-0.2114,-0.2088,-0.2236,-0.2159,-0.2089,-0.1895,-0.1845,-0.1796,-0.1938,-0.1773,-0.1778,-0.1789,-0.1741,-0.1765,-0.1649,-0.1653,-0.1656,-0.1658,-0.1661,0,-0.1999,-0.1984,-0.1997,-0.198,-0.1923,-0.2001,-0.1958,-0.1879,-0.1832,-0.1851,-0.1873,-0.1618,-0.1504,-0.15,-0.1378,-0.1401,-0.1323,-0.1337,-0.1181,-0.1214,-0.1244,-0.1163,-0.0921,-0.0919,-0.0918,-0.0917,0,0,-0.1924,-0.1885,-0.1866,-0.1734,-0.1728,-0.1573,-0.1524,-0.1483,-0.1435,-0.1384,-0.1291,-0.1317,-0.1355,-0.1067,-0.1054,-0.0986,-0.1086,-0.0932,-0.1504,-0.1346,-0.1374,-0.1459,-0.1368,0,0,0,0,0]},{"header":{"parameterUnit":"m.s-1","parameterCategory":2,"la1":30.2991,"la2":30.254,"lo1":-89.0895,"lo2":-89.0444,"dy":0.0017,"dx":0.0017,"nx":28,"ny":28,"refTime":"2025-06-03T09:00:00:Z","depth":"2","parameterNumber":3,"parameterNumberName":"V-component_of_CURRENTS"},"data":[0,0,0,0,0,0,0,0,0,0,0,0,0,0,0,0,0,0,0,0,0,0,0,0,0,0,0,0,0,0,0,0,0,0,0,0,0,0,0,0,0,0,0,0,0,0,0,0,0,0,0,0,0,0,0,0,0,0,-0.0404,-0.0404,0,-0.0352,-0.0351,-0.035,-0.0326,-0.0326,-0.0327,-0.0328,-0.0301,-0.0299,-0.0298,0,0,0,0,0,0,0,0,0,0,0,0,0,-0.0371,-0.0372,-0.0404,-0.0404,-0.0404,-0.0352,-0.0351,-0.035,-0.0325,-0.0326,-0.0327,-0.0328,-0.0301,-0.0299,-0.0298,0,0,0,0,0,0,0,0,0,0,0,0,0,-0.0353,-0.0372,-0.0404,-0.0391,-0.0389,-0.0353,-0.0351,-0.0349,-0.0325,-0.0326,-0.0327,-0.0328,-0.0302,-0.03,-0.0298,-0.0266,0,0,-0.0292,-0.0291,0,0,0,0,0,0,0,0,-0.0354,-0.0353,-0.0392,-0.0391,-0.039,-0.0352,-0.033,-0.0325,-0.0325,-0.0342,-0.0328,-0.0329,-0.0324,-0.032,-0.0298,-0.0264,-0.0263,-0.0291,-0.029,-0.0289,-0.0289,0,0,0,0,0,0,0,-0.0355,-0.0354,-0.0376,-0.0393,-0.0391,-0.035,-0.0348,-0.0327,-0.0323,-0.0341,-0.0341,-0.0346,-0.0323,-0.03,-0.0298,-0.0263,-0.0291,-0.029,-0.0288,-0.0288,-0.0177,-0.0176,0,0,0,0,0,0,-0.038,-0.0356,-0.0378,-0.0376,-0.0382,-0.035,-0.0349,-0.0358,-0.0323,-0.0321,-0.0345,-0.0345,-0.0303,-0.03,-0.0297,-0.0286,-0.0289,-0.0287,-0.0286,-0.0179,-0.0177,-0.0175,0,0,0,0,0,0,-0.038,-0.0383,-0.038,-0.037,-0.0367,-0.0352,-0.0361,-0.0357,-0.0362,-0.0327,-0.0324,-0.0359,-0.0304,-0.0299,-0.0246,-0.0284,-0.0287,-0.0285,-0.0181,-0.0178,-0.0176,-0.0246,0,0,0,0,0,0,-0.0379,-0.0383,-0.0397,-0.0372,-0.0369,-0.038,-0.0361,-0.0355,-0.0365,-0.0364,-0.0338,-0.0334,-0.0304,-0.0249,-0.0244,-0.0281,-0.0283,-0.0183,-0.018,-0.0177,-0.0246,-0.0246,-0.0246,0,0,0,0,0,-0.0378,-0.0407,-0.0398,-0.0401,-0.039,-0.0382,-0.0376,-0.0362,-0.0365,-0.0369,-0.0311,-0.0336,-0.0226,-0.0244,-0.024,-0.0278,-0.0185,-0.0181,-0.0177,-0.0246,-0.0246,-0.0246,0,0,0,0,0,0,-0.0405,-0.0407,-0.0397,-0.0426,-0.0412,-0.0381,-0.0388,-0.038,-0.0338,-0.0334,-0.03,-0.0291,-0.0256,-0.0239,-0.0261,-0.0227,-0.0216,-0.0211,-0.027,-0.027,-0.0271,-0.0263,-0.0282,0,0,0,0,0,-0.0416,-0.0444,-0.0422,-0.0451,-0.0442,-0.0416,-0.0414,-0.0401,-0.0365,-0.0351,-0.0334,-0.029,-0.0231,-0.023,-0.0176,-0.0167,-0.0133,-0.0186,-0.0186,-0.0187,-0.0171,-0.0116,-0.0111,-0.0162,-0.0162,-0.0162,0,0,-0.0434,-0.0445,-0.0458,-0.0459,-0.0443,-0.0412,-0.0416,-0.0419,-0.0393,-0.0353,-0.0324,-0.0286,-0.0216,-0.0181,-0.0171,-0.0184,-0.0159,-0.0182,-0.0184,-0.0166,-0.0111,-0.0107,-0.0103,-0.0159,-0.016,-0.016,0,0,-0.0473,-0.049,-0.0505,-0.0489,-0.0478,-0.0444,-0.0453,-0.043,-0.0421,-0.0373,-0.0327,-0.0296,-0.0242,-0.0198,-0.0162,-0.0132,-0.0143,-0.0146,-0.0173,-0.0121,-0.0117,-0.0114,-0.0096,-0.009,-0.0171,-0.0171,-0.0171,0,-0.0499,-0.0508,-0.0508,-0.0499,-0.0486,-0.0459,-0.0439,-0.0409,-0.0376,-0.0364,-0.037,-0.0262,-0.0236,-0.0165,-0.0157,-0.014,-0.0119,-0.0191,-0.0126,-0.0121,-0.0116,-0.0098,-0.009,-0.0174,-0.0174,-0.0174,-0.0173,0,-0.0525,-0.0519,-0.053,-0.0498,-0.0476,-0.0473,-0.0417,-0.0412,-0.04,-0.0365,-0.0319,-0.0262,-0.0207,-0.0212,-0.0175,-0.014,-0.014,-0.0121,-0.014,-0.0116,-0.0098,-0.0089,-0.0178,-0.0177,-0.0177,-0.0176,0,0,-0.0608,-0.0559,-0.0557,-0.0533,-0.0481,-0.0465,-0.0421,-0.0373,-0.035,-0.0325,-0.03,-0.0221,-0.0224,-0.0179,-0.0164,-0.014,-0.0114,-0.0136,-0.0132,-0.0144,-0.0026,0.0027,0.0041,-0.0095,-0.0093,-0.0092,-0.0041,0,-0.0627,-0.0616,-0.0572,-0.0527,-0.0508,-0.0457,-0.0415,-0.0366,-0.033,-0.0301,-0.0257,-0.0209,-0.0199,-0.0199,-0.0166,-0.0106,-0.0087,-0.013,-0.0022,-0.0019,0.0004,0.0056,0.0046,0.0097,-0.0032,-0.003,-0.0029,0,-0.0654,-0.0644,-0.0619,-0.0548,-0.0532,-0.0493,-0.0436,-0.0395,-0.0325,-0.0307,-0.026,-0.0214,-0.0163,-0.0168,-0.0063,-0.0095,-0.0063,-0.003,-0.0026,0.0062,0.0053,0.0064,0.0118,-0.0013,-0.0015,-0.0016,-0.0017,0,-0.0722,-0.0666,-0.0655,-0.0634,-0.0549,-0.0533,-0.049,-0.0415,-0.0382,-0.0323,-0.0287,-0.0212,-0.0172,-0.0108,-0.0037,-0.0052,0.0073,0.0065,0.0145,0.0146,0.0185,0.0188,0.0144,0.0144,0.0144,0.0144,0.0144,0,-0.0766,-0.0744,-0.0692,-0.0684,-0.0667,-0.0589,-0.0554,-0.0512,-0.0438,-0.0375,-0.0304,-0.0237,-0.0151,-0.0066,-0.0025,0.0098,0.009,0.0166,0.0183,0.0159,0.016,0.0111,0.0106,0.0146,0.0145,0.0145,0.0145,0,-0.0819,-0.079,-0.0772,-0.0712,-0.07,-0.0692,-0.0609,-0.0556,-0.0495,-0.0415,-0.0396,-0.0251,-0.0138,-0.0055,0.0055,0.0135,0.0222,0.0256,0.0208,0.022,0.0248,0.024,0.0365,0.0368,0.037,0.0372,0.0373,0,-0.084,-0.0848,-0.0819,-0.082,-0.0793,-0.0765,-0.0715,-0.0624,-0.0539,-0.0407,-0.034,-0.0227,-0.0118,0.0069,0.0193,0.0294,0.026,0.0375,0.0371,0.0278,0.028,0.0268,0.0257,0.0369,0.037,0.0372,0.0372,0,-0.0886,-0.0888,-0.0873,-0.0887,-0.0851,-0.0781,-0.0696,-0.0658,-0.0513,-0.0455,-0.0334,-0.0262,-0.0039,0.0114,0.0285,0.0344,0.0361,0.0407,0.0344,0.0325,0.029,0.0289,0.0276,0.0383,0.0382,0.0381,0.0381,0.038,-0.0919,-0.0932,-0.0934,-0.0936,-0.0888,-0.0787,-0.0758,-0.0636,-0.0557,-0.0404,-0.0317,-0.0144,0.0018,0.0301,0.037,0.0458,0.0458,0.0494,0.0486,0.0479,0.0481,0.0454,0.0575,0.0575,0.0575,0.0575,0.0575,0,-0.0968,-0.0972,-0.0977,-0.0951,-0.0897,-0.0855,-0.072,-0.067,-0.0607,-0.0359,-0.0258,-0.0039,0.0176,0.0315,0.0474,0.0568,0.0527,0.0568,0.0489,0.048,0.0471,0.0469,0.0562,0.0562,0.0562,0.0562,0,0,-0.0979,-0.1006,-0.0999,-0.0956,-0.0939,-0.0848,-0.079,-0.0715,-0.0541,-0.0365,-0.0155,0.0124,0.0282,0.0396,0.046,0.0516,0.0476,0.0519,0.0526,0.0415,0.0406,0.0433,0.0422,0,0,0,0,0]}],[{"header":{"parameterUnit":"m.s-1","parameterCategory":2,"la1":30.2991,"la2":30.254,"lo1":-89.0895,"lo2":-89.0444,"dy":0.0017,"dx":0.0017,"nx":28,"ny":28,"refTime":"2025-06-03T09:00:00:Z","depth":"4","parameterNumber":2,"parameterNumberName":"U-component_of_CURRENTS"},"data":[0,0,0,0,0,0,0,0,0,0,0,0,0,0,0,0,0,0,0,0,0,0,0,0,0,0,0,0,0,0,0,0,0,0,0,0,0,0,0,0,0,0,0,0,0,0,0,0,0,0,0,0,0,0,0,0,0,0,-0.0416,-0.0416,0,-0.0456,-0.0457,-0.0458,-0.0554,-0.0555,-0.0557,-0.0558,-0.071,-0.0712,-0.0715,0,0,0,0,0,0,0,0,0,0,0,0,0,-0.0361,-0.0363,-0.0416,-0.0416,-0.0416,-0.0456,-0.0457,-0.0458,-0.0554,-0.0555,-0.0557,-0.0559,-0.0709,-0.0712,-0.0715,0,0,0,0,0,0,0,0,0,0,0,0,0,-0.0397,-0.0363,-0.0416,-0.0464,-0.0469,-0.0456,-0.0457,-0.0458,-0.0553,-0.0555,-0.0558,-0.056,-0.0708,-0.0711,-0.0715,-0.0695,0,0,-0.0727,-0.0729,0,0,0,0,0,0,0,0,-0.0395,-0.04,-0.0457,-0.0461,-0.0466,-0.0497,-0.0493,-0.0541,-0.0553,-0.0527,-0.0558,-0.0561,-0.0644,-0.0653,-0.0662,-0.0702,-0.0708,-0.0728,-0.073,-0.0732,-0.0733,0,0,0,0,0,0,0,-0.0392,-0.0398,-0.0438,-0.0457,-0.0462,-0.0463,-0.0472,-0.0502,-0.0578,-0.0529,-0.0535,-0.053,-0.0648,-0.0658,-0.0666,-0.071,-0.0728,-0.0731,-0.0734,-0.0735,-0.0967,-0.0971,0,0,0,0,0,0,-0.0377,-0.0396,-0.0436,-0.0438,-0.0429,-0.0462,-0.0472,-0.0489,-0.0576,-0.0589,-0.0528,-0.0534,-0.065,-0.0661,-0.0672,-0.0821,-0.0732,-0.0736,-0.0738,-0.0963,-0.0968,-0.0972,0,0,0,0,0,0,-0.0376,-0.0381,-0.0434,-0.0412,-0.0418,-0.046,-0.0479,-0.0489,-0.0533,-0.0573,-0.059,-0.0565,-0.0652,-0.0666,-0.0762,-0.0821,-0.0737,-0.0741,-0.0959,-0.0965,-0.097,-0.1011,0,0,0,0,0,0,-0.0375,-0.0381,-0.0396,-0.0412,-0.0419,-0.0442,-0.0477,-0.0488,-0.0521,-0.0531,-0.0609,-0.0623,-0.0655,-0.0756,-0.0766,-0.0825,-0.0744,-0.0954,-0.0961,-0.0968,-0.1005,-0.1017,-0.1028,0,0,0,0,0,-0.0373,-0.039,-0.0397,-0.0402,-0.0437,-0.0441,-0.0446,-0.0485,-0.0521,-0.0536,-0.0622,-0.0623,-0.0809,-0.0761,-0.0772,-0.0834,-0.0951,-0.0959,-0.0968,-0.0999,-0.1015,-0.1028,0,0,0,0,0,0,-0.0368,-0.0401,-0.041,-0.0435,-0.0438,-0.0456,-0.0479,-0.0496,-0.0569,-0.0618,-0.0654,-0.0674,-0.0794,-0.0806,-0.0752,-0.0929,-0.0886,-0.0897,-0.0907,-0.0922,-0.0933,-0.0879,-0.0747,0,0,0,0,0,-0.0369,-0.0394,-0.0409,-0.042,-0.0439,-0.0461,-0.0472,-0.0508,-0.0562,-0.0598,-0.0667,-0.0754,-0.0828,-0.0867,-0.0943,-0.1009,-0.0962,-0.1066,-0.1078,-0.1087,-0.1056,-0.1019,-0.1021,-0.1,-0.1,-0.1,0,0,-0.0367,-0.0381,-0.0398,-0.0419,-0.0442,-0.0463,-0.0479,-0.0524,-0.0565,-0.0603,-0.0726,-0.0803,-0.0861,-0.0969,-0.1021,-0.0987,-0.1082,-0.1098,-0.1105,-0.1068,-0.1027,-0.1028,-0.1029,-0.1006,-0.1005,-0.1004,0,0,-0.0363,-0.0399,-0.0423,-0.0438,-0.0475,-0.049,-0.0505,-0.0571,-0.0636,-0.0736,-0.0798,-0.09,-0.1014,-0.1065,-0.1098,-0.1208,-0.1155,-0.1258,-0.1253,-0.122,-0.1218,-0.1216,-0.119,-0.1185,-0.1249,-0.1249,-0.1249,0,-0.0361,-0.0388,-0.0422,-0.0446,-0.0471,-0.0503,-0.054,-0.0587,-0.0684,-0.0765,-0.0798,-0.0996,-0.1053,-0.1138,-0.1191,-0.1229,-0.1193,-0.1187,-0.1225,-0.1223,-0.122,-0.1193,-0.1187,-0.1252,-0.1252,-0.1251,-0.1251,0,-0.0368,-0.04,-0.0419,-0.0463,-0.0496,-0.0532,-0.06,-0.0684,-0.0778,-0.0846,-0.1006,-0.1077,-0.1172,-0.1232,-0.124,-0.1277,-0.1255,-0.1248,-0.1166,-0.1222,-0.1194,-0.1186,-0.1256,-0.1255,-0.1254,-0.1254,0,0,-0.0341,-0.0413,-0.042,-0.0449,-0.0525,-0.0546,-0.0653,-0.0753,-0.0836,-0.0963,-0.1046,-0.1196,-0.1234,-0.1268,-0.1297,-0.1274,-0.1248,-0.1243,-0.124,-0.1175,-0.1163,-0.1103,-0.1089,-0.1228,-0.1226,-0.1225,-0.1158,0,-0.0335,-0.0367,-0.0428,-0.0476,-0.0508,-0.0607,-0.0693,-0.081,-0.0921,-0.1015,-0.111,-0.1201,-0.1239,-0.1273,-0.126,-0.1254,-0.1226,-0.1266,-0.1153,-0.1149,-0.1053,-0.1077,-0.1221,-0.1153,-0.1151,-0.115,-0.1149,0,-0.0332,-0.0349,-0.0401,-0.0505,-0.054,-0.0597,-0.0755,-0.0848,-0.1,-0.1088,-0.1176,-0.1212,-0.1232,-0.1224,-0.1201,-0.1217,-0.1182,-0.1167,-0.1163,-0.1071,-0.1074,-0.1084,-0.1135,-0.1136,-0.1137,-0.1138,-0.1139,0,-0.027,-0.0344,-0.0382,-0.041,-0.0527,-0.0627,-0.0731,-0.091,-0.0991,-0.1112,-0.1124,-0.1193,-0.1173,-0.1154,-0.1123,-0.1149,-0.1051,-0.1088,-0.1006,-0.1002,-0.1052,-0.1054,-0.1031,-0.1031,-0.1031,-0.1031,-0.1031,0,-0.0243,-0.0272,-0.0365,-0.038,-0.047,-0.0616,-0.0752,-0.0871,-0.1,-0.1048,-0.1134,-0.109,-0.1138,-0.1086,-0.1085,-0.1007,-0.1019,-0.0985,-0.0969,-0.1083,-0.1089,-0.1048,-0.1051,-0.1029,-0.1029,-0.103,-0.103,0,-0.0193,-0.0234,-0.027,-0.0392,-0.0441,-0.0533,-0.072,-0.0791,-0.0937,-0.096,-0.0963,-0.0989,-0.095,-0.0975,-0.0937,-0.0932,-0.0892,-0.0854,-0.0961,-0.0957,-0.0884,-0.0891,-0.0779,-0.0776,-0.0773,-0.0771,-0.0769,0,-0.0179,-0.0184,-0.025,-0.0265,-0.0335,-0.0477,-0.0554,-0.0742,-0.0789,-0.0866,-0.0816,-0.0803,-0.0808,-0.0732,-0.0771,-0.078,-0.0778,-0.076,-0.0843,-0.0856,-0.0853,-0.0864,-0.0874,-0.0765,-0.0765,-0.0764,-0.0763,0,-0.0147,-0.0162,-0.0184,-0.0198,-0.0256,-0.0332,-0.0463,-0.0483,-0.066,-0.0684,-0.0683,-0.0693,-0.0639,-0.0674,-0.0674,-0.0675,-0.0788,-0.0735,-0.0742,-0.082,-0.0839,-0.084,-0.0853,-0.0755,-0.0756,-0.0757,-0.0757,0,-0.0128,-0.0127,-0.0136,-0.0163,-0.0188,-0.0248,-0.033,-0.0401,-0.0484,-0.058,-0.0537,-0.0571,-0.0596,-0.0607,-0.0588,-0.0611,-0.064,-0.066,-0.0672,-0.0682,-0.0686,-0.0698,-0.0532,0,0,0,0,0,-0.0115,-0.0112,-0.0106,-0.0153,-0.0162,-0.0214,-0.0275,-0.0355,-0.0446,-0.0424,-0.053,-0.0496,-0.0529,-0.053,-0.0544,-0.0543,-0.0635,-0.0555,-0.0663,-0.0706,-0.0717,-0.0733,0,0,0,0,0,0,-0.0109,-0.0101,-0.0097,-0.0132,-0.0173,-0.0231,-0.0287,-0.0349,-0.0382,-0.0441,-0.0456,-0.0476,-0.0503,-0.0531,-0.054,-0.0543,-0.0606,-0.0573,-0.0572,-0.0701,-0.071,-0.0718,-0.0738,0,0,0,0,0]},{"header":{"parameterUnit":"m.s-1","parameterCategory":2,"la1":30.2991,"la2":30.254,"lo1":-89.0895,"lo2":-89.0444,"dy":0.0017,"dx":0.0017,"nx":28,"ny":28,"refTime":"2025-06-03T09:00:00:Z","depth":"4","parameterNumber":3,"parameterNumberName":"V-component_of_CURRENTS"},"data":[0,0,0,0,0,0,0,0,0,0,0,0,0,0,0,0,0,0,0,0,0,0,0,0,0,0,0,0,0,0,0,0,0,0,0,0,0,0,0,0,0,0,0,0,0,0,0,0,0,0,0,0,0,0,0,0,0,0,-0.0284,-0.0284,0,-0.0336,-0.0337,-0.0338,-0.0337,-0.0336,-0.0336,-0.0335,-0.0313,-0.0313,-0.0313,0,0,0,0,0,0,0,0,0,0,0,0,0,-0.019,-0.0192,-0.0284,-0.0285,-0.0285,-0.0336,-0.0337,-0.0338,-0.0338,-0.0336,-0.0335,-0.0334,-0.0313,-0.0313,-0.0313,0,0,0,0,0,0,0,0,0,0,0,0,0,-0.0238,-0.0193,-0.0284,-0.0289,-0.029,-0.0336,-0.0337,-0.0338,-0.0338,-0.0336,-0.0335,-0.0334,-0.0312,-0.0313,-0.0313,-0.0343,0,0,-0.0314,-0.0315,0,0,0,0,0,0,0,0,-0.0235,-0.0242,-0.0288,-0.0289,-0.029,-0.0327,-0.0296,-0.0335,-0.0338,-0.0322,-0.0335,-0.0333,-0.031,-0.031,-0.0328,-0.0342,-0.0341,-0.0314,-0.0315,-0.0315,-0.0315,0,0,0,0,0,0,0,-0.0232,-0.0239,-0.0307,-0.0288,-0.029,-0.029,-0.0296,-0.0304,-0.0324,-0.0324,-0.0323,-0.0325,-0.031,-0.0328,-0.0327,-0.034,-0.0314,-0.0315,-0.0315,-0.0315,-0.0296,-0.0296,0,0,0,0,0,0,-0.0222,-0.0237,-0.0305,-0.0308,-0.0256,-0.0293,-0.0299,-0.0318,-0.0325,-0.0325,-0.0326,-0.0325,-0.0328,-0.0327,-0.0326,-0.0273,-0.0315,-0.0315,-0.0315,-0.0297,-0.0296,-0.0296,0,0,0,0,0,0,-0.022,-0.0229,-0.0303,-0.027,-0.0279,-0.0296,-0.0317,-0.032,-0.0339,-0.0328,-0.0326,-0.0342,-0.0326,-0.0325,-0.0346,-0.0275,-0.0315,-0.0316,-0.0298,-0.0297,-0.0296,-0.0223,0,0,0,0,0,0,-0.0218,-0.0228,-0.0241,-0.027,-0.0281,-0.0334,-0.0318,-0.0322,-0.0341,-0.034,-0.034,-0.0337,-0.0325,-0.0346,-0.0346,-0.0276,-0.0316,-0.0299,-0.0298,-0.0296,-0.0226,-0.0219,-0.0213,0,0,0,0,0,-0.0215,-0.0239,-0.0242,-0.025,-0.0299,-0.0334,-0.0341,-0.0348,-0.0343,-0.0359,-0.0364,-0.0337,-0.0334,-0.0348,-0.0348,-0.0276,-0.03,-0.0298,-0.0296,-0.0229,-0.0221,-0.0214,0,0,0,0,0,0,-0.0209,-0.0243,-0.0246,-0.0281,-0.0305,-0.0333,-0.035,-0.0356,-0.0377,-0.0379,-0.0362,-0.036,-0.0338,-0.0341,-0.0355,-0.0268,-0.0299,-0.0297,-0.0247,-0.0239,-0.0233,-0.0226,-0.0316,0,0,0,0,0,-0.0214,-0.0241,-0.0269,-0.0298,-0.031,-0.0333,-0.0348,-0.0361,-0.038,-0.0388,-0.0382,-0.0366,-0.0334,-0.0319,-0.0313,-0.0292,-0.0303,-0.0238,-0.0231,-0.0226,-0.0222,-0.0191,-0.0181,-0.029,-0.029,-0.029,0,0,-0.0222,-0.0242,-0.0259,-0.0298,-0.0318,-0.0349,-0.034,-0.0376,-0.0399,-0.0382,-0.0406,-0.0362,-0.0332,-0.0292,-0.0278,-0.0283,-0.0206,-0.0224,-0.0219,-0.0218,-0.0188,-0.0177,-0.0168,-0.0289,-0.0289,-0.0289,0,0,-0.0251,-0.0269,-0.0301,-0.0322,-0.0355,-0.0371,-0.0381,-0.0412,-0.0421,-0.0436,-0.0404,-0.0348,-0.0324,-0.0274,-0.0243,-0.0213,-0.0184,-0.017,-0.0115,-0.0084,-0.0075,-0.0066,-0.0087,-0.0081,-0.0152,-0.0152,-0.0152,0,-0.0252,-0.0299,-0.0315,-0.0347,-0.0368,-0.038,-0.0419,-0.0436,-0.0466,-0.0456,-0.0438,-0.0338,-0.0314,-0.0227,-0.018,-0.0194,-0.0179,-0.0139,-0.0074,-0.0066,-0.0058,-0.0081,-0.0075,-0.0148,-0.0148,-0.0149,-0.0149,0,-0.0304,-0.0338,-0.0358,-0.04,-0.0429,-0.0464,-0.0488,-0.0504,-0.049,-0.0472,-0.0397,-0.0341,-0.0251,-0.0212,-0.0172,-0.0069,-0.0078,-0.0079,-0.0089,-0.0043,-0.0071,-0.0066,-0.0143,-0.0144,-0.0145,-0.0146,0,0,-0.0307,-0.0378,-0.0383,-0.0409,-0.046,-0.0487,-0.0524,-0.0535,-0.0521,-0.0478,-0.0424,-0.0305,-0.0205,-0.0164,-0.0081,-0.003,0.0043,0.0005,0.0004,-0.0009,0.0102,0.0131,0.0138,0.0087,0.0089,0.009,0.0054,0,-0.0335,-0.0394,-0.0433,-0.0493,-0.0523,-0.055,-0.0575,-0.0583,-0.0547,-0.0498,-0.0388,-0.029,-0.0206,-0.01,-0.0032,0.0014,0.0065,0.0051,0.0053,0.0051,0.0079,0.0148,0.0096,0.0057,0.0058,0.0059,0.006,0,-0.0371,-0.0402,-0.0467,-0.0525,-0.0541,-0.0581,-0.0595,-0.0606,-0.0544,-0.049,-0.0349,-0.0258,-0.0125,-0.0067,0.0045,0.0051,0.0105,0.0123,0.0121,0.0129,0.0091,0.0005,0.0068,0.0067,0.0067,0.0066,0.0066,0,-0.0355,-0.0427,-0.0476,-0.0498,-0.0564,-0.0597,-0.0611,-0.0591,-0.0576,-0.0442,-0.0382,-0.0228,-0.0137,-0.0042,0.0057,0.0074,0.0129,0.0128,0.0184,0.0182,0.013,0.0121,0.0205,0.0205,0.0205,0.0205,0.0205,0,-0.0366,-0.0406,-0.0471,-0.0496,-0.0544,-0.0579,-0.0593,-0.057,-0.0515,-0.0449,-0.0328,-0.0234,-0.011,-0.0048,0.0037,0.0129,0.0117,0.0206,0.0198,0.0156,0.0151,0.0131,0.0123,0.0204,0.0204,0.0204,0.0204,0,-0.0359,-0.04,-0.0455,-0.0521,-0.0546,-0.0565,-0.0602,-0.0573,-0.0519,-0.0429,-0.0368,-0.0251,-0.0137,-0.0069,0.0037,0.0091,0.0164,0.0199,0.0116,0.0099,0.019,0.0186,0.0245,0.0247,0.0248,0.0249,0.0249,0,-0.0368,-0.0393,-0.0466,-0.0487,-0.0527,-0.056,-0.0569,-0.0553,-0.0505,-0.0418,-0.0354,-0.0252,-0.015,-0.0016,0.0054,0.0157,0.0196,0.0196,0.0251,0.022,0.0205,0.0199,0.0194,0.0251,0.0251,0.0251,0.0252,0,-0.0375,-0.04,-0.0436,-0.0468,-0.0498,-0.0528,-0.0529,-0.0506,-0.0442,-0.042,-0.0267,-0.0164,-0.0073,0.0034,0.0103,0.0187,0.0175,0.0208,0.0207,0.0259,0.0227,0.021,0.0203,0.0255,0.0255,0.0254,0.0254,0,-0.0374,-0.0391,-0.0421,-0.0454,-0.0476,-0.0473,-0.049,-0.0426,-0.0391,-0.0283,-0.0239,-0.012,-0.0064,0.0049,0.012,0.0195,0.0228,0.0251,0.0249,0.0245,0.0274,0.0235,0.0278,0,0,0,0,0,-0.0369,-0.0382,-0.04,-0.0437,-0.0446,-0.0473,-0.0449,-0.0446,-0.0408,-0.0268,-0.0243,-0.0118,0.0027,0.0067,0.0158,0.0106,0.0196,0.0209,0.0211,0.0275,0.0271,0.0311,0,0,0,0,0,0,-0.0367,-0.0384,-0.0394,-0.0406,-0.043,-0.0444,-0.0433,-0.0408,-0.0325,-0.0265,-0.0179,-0.0119,0.0012,-0.0024,0.0149,0.0165,0.0177,0.027,0.0272,0.0278,0.0274,0.0271,0.031,0,0,0,0,0]}]]